TimeEDT,TemperatureF,Dew PointF,Humidity,Sea Level PressureIn,VisibilityMPH,Wind Direction,Wind SpeedMPH,Gust SpeedMPH,PrecipitationIn,Events,Conditions,WindDirDegrees,DateUTC
12:52 AM,44.1,39.0,82,30.17,10.0,Variable,4.6,-,N/A,,Mostly Cloudy,0,2013-03-12 04:52:00
1:39 AM,42.8,39.2,87,30.18,10.0,SW,3.5,-,N/A,,Scattered Clouds,220,2013-03-12 05:39:00
1:52 AM,43.0,39.0,86,30.18,10.0,Variable,3.5,-,N/A,,Scattered Clouds,0,2013-03-12 05:52:00
2:52 AM,44.1,39.9,85,30.14,10.0,South,5.8,-,N/A,,Clear,170,2013-03-12 06:52:00
3:52 AM,45.0,41.0,86,30.11,10.0,South,5.8,-,N/A,,Partly Cloudy,170,2013-03-12 07:52:00
4:52 AM,46.9,43.0,86,30.09,10.0,Variable,4.6,-,N/A,,Clear,0,2013-03-12 08:52:00
5:14 AM,46.4,42.8,87,30.09,10.0,South,6.9,-,N/A,,Partly Cloudy,190,2013-03-12 09:14:00
5:32 AM,46.4,42.8,87,30.10,10.0,South,5.8,-,N/A,,Mostly Cloudy,190,2013-03-12 09:32:00
5:52 AM,48.0,44.1,86,30.09,10.0,South,6.9,-,N/A,,Mostly Cloudy,180,2013-03-12 09:52:00
6:18 AM,48.2,44.6,87,30.08,10.0,South,4.6,-,N/A,,Scattered Clouds,180,2013-03-12 10:18:00
6:52 AM,48.0,45.0,89,30.09,10.0,SSW,4.6,-,N/A,,Partly Cloudy,200,2013-03-12 10:52:00
7:52 AM,50.0,45.0,83,30.08,10.0,Variable,5.8,-,N/A,,Clear,0,2013-03-12 11:52:00
8:22 AM,48.2,44.6,87,30.07,10.0,SSE,8.1,-,N/A,,Scattered Clouds,160,2013-03-12 12:22:00
8:52 AM,50.0,45.0,83,30.08,10.0,SSE,13.8,25.3,N/A,,Overcast,160,2013-03-12 12:52:00
9:52 AM,50.0,46.0,86,30.08,10.0,Variable,6.9,19.6,N/A,,Overcast,0,2013-03-12 13:52:00
10:52 AM,52.0,46.9,83,30.05,10.0,South,9.2,19.6,N/A,,Mostly Cloudy,170,2013-03-12 14:52:00
11:37 AM,53.6,46.4,77,30.03,10.0,South,8.1,-,N/A,,Overcast,180,2013-03-12 15:37:00
11:52 AM,53.1,46.9,80,30.03,10.0,Variable,5.8,-,N/A,,Overcast,0,2013-03-12 15:52:00
12:52 PM,55.0,48.0,77,30.01,10.0,South,8.1,-,N/A,,Overcast,170,2013-03-12 16:52:00
1:52 PM,55.9,48.0,75,29.98,10.0,South,12.7,21.9,N/A,,Overcast,180,2013-03-12 17:52:00
2:52 PM,54.0,46.9,77,29.95,10.0,SSE,10.4,19.6,N/A,,Overcast,160,2013-03-12 18:52:00
3:52 PM,53.1,46.9,80,29.93,8.0,South,8.1,20.7,0.00,Rain,Light Rain,170,2013-03-12 19:52:00
4:52 PM,52.0,48.0,86,29.90,5.0,SSE,9.2,17.3,0.02,Rain,Light Rain,160,2013-03-12 20:52:00
5:19 PM,51.8,48.2,88,29.88,4.0,SSE,9.2,-,0.01,Rain,Light Rain,150,2013-03-12 21:19:00
5:52 PM,52.0,48.9,89,29.87,4.0,SSE,8.1,18.4,0.05,Rain,Light Rain,160,2013-03-12 21:52:00
6:04 PM,51.8,48.2,88,29.85,4.0,SSE,10.4,19.6,0.01,Rain,Light Rain,150,2013-03-12 22:04:00
6:52 PM,53.1,48.9,86,29.83,6.0,South,12.7,19.6,0.06,Rain,Light Rain,170,2013-03-12 22:52:00
7:26 PM,53.6,50.0,88,29.82,5.0,South,10.4,21.9,0.05,Rain,Light Rain,170,2013-03-12 23:26:00
7:44 PM,53.6,50.0,88,29.80,5.0,South,12.7,21.9,0.09,Rain,Light Rain,170,2013-03-12 23:44:00
7:52 PM,54.0,50.0,86,29.81,5.0,South,10.4,24.2,0.11,Rain,Light Rain,170,2013-03-12 23:52:00
8:52 PM,54.0,51.1,90,29.78,2.5,South,10.4,25.3,0.18,Rain,Rain,180,2013-03-13 00:52:00
9:07 PM,55.4,51.8,88,29.77,3.0,South,16.1,27.6,0.04,Rain,Light Rain,180,2013-03-13 01:07:00
9:52 PM,54.0,51.1,90,29.77,3.0,South,18.4,29.9,0.15,Rain,Rain,190,2013-03-13 01:52:00
10:19 PM,53.6,51.8,94,29.78,1.8,SW,11.5,29.9,0.11,Rain,Heavy Rain,220,2013-03-13 02:19:00
10:26 PM,53.6,51.8,94,29.78,3.0,SW,16.1,23.0,0.13,Rain,Rain,220,2013-03-13 02:26:00
10:34 PM,53.6,51.8,94,29.78,2.5,SSW,11.5,24.2,0.20,Rain,Rain,210,2013-03-13 02:34:00
10:52 PM,54.0,51.1,90,29.77,2.0,SSW,12.7,21.9,0.37,Rain,Heavy Rain,200,2013-03-13 02:52:00
11:05 PM,53.6,51.8,94,29.76,3.0,South,9.2,18.4,0.05,Rain,Rain,190,2013-03-13 03:05:00
11:25 PM,53.6,51.8,94,29.76,6.0,South,10.4,19.6,0.11,Rain,Light Rain,190,2013-03-13 03:25:00
11:35 PM,53.6,50.0,88,29.76,5.0,SSW,11.5,24.2,0.14,Rain,Rain,200,2013-03-13 03:35:00
11:52 PM,54.0,51.1,90,29.75,4.0,South,8.1,-,0.17,Rain,Rain,190,2013-03-13 03:52:00